Погода в Ключевом

Россия / Кемеровская область (Кузбасс)     52°37′35″N   88°00′49″E
темп.,
°C
ветер,
м/с
пор.,
м/с
влажн.,
%
обл.,
%
осадки,
мм/ч
давл.,
гПа
погр.,
м
22 января, пт
пт2201:00−7св1297100 0.5 101221
04:00−6вюв1197100 0.2 100939
07:00−7в1196100 0.2 100621
10:00−5з1195100 0.1 100688
13:00−3зюз41095100 1.8 1006837
16:00−5зсз4795100 1.8 1009558
19:00−8з2396100 3.2 1013234
22:00−10з2496100 1.1 1016310
23 января, сб
сб2301:00−12з2496100 2.1 1019358
04:00−13з3795100 0.7 1024670
07:00−16зюз2796100 1.3 1029474
10:00−18зюз2897100 0.3 1032564
13:00−16зсз2491100 0.4 1032491
16:00−16зсз0192100 0.1 1031255
19:00−17ююв1197100 0.3 103320
22:00−17ююв1198100 0.2 103420
24 января, вс
вс2401:00−17ю0198100 0.4 103420
04:00−17ссв1197100 0.2 103420
07:00−17юв1198100 0.4 103420
10:00−17вюв1198100 0.2 103422
13:00−13юз0192100 0.4 1032237
16:00−13сз1391100 0.2 1031442
19:00−15сз1297100 0.6 103390
22:00−17з3895100 0.4 1036704
25 января, пн
пн2501:00−21зюз2498100 0.8 1039283
04:00−24з2399100 0.3 1041134
07:00−25зюз2399100 0.4 1043112
10:00−26зюз1497100 0.1 1045305
13:00−24з2590100 0.2 1044565
16:00−23з2390100 0.1 1043603
19:00−26з1198100 0.1 104519
22:00−28з0199100 0.1 104519
26 января, вт
вт2601:00−30зюз0010092 0.1 104519
04:00−31в0110070 0.0 104419
07:00−31в1110085 0.0 104419
10:00−29в1198100 0.0 104419
13:00−22ю019098 0.0 1041229
16:00−20з138665 0.0 1041601
19:00−27сз119773 0.0 104419
22:00−29зюз001004 0.0 104519